Vertical_Velocity
1 0 0 0 0 -0 -1 -2 -2 -0 1 1 0 -0 -1 -1 -2 -3 -4 -5 -6 -6 -6 -5 -4 -3 -3 -4 -4 -4 -5 -7 -7 -6 -4 -1 0 1 2 2 -1 -4 -5 -4 -3 -1 0 1 2 0 -1 -0 3 2 0 0 3 7 12 17 15 13 10 7 -1 -4 -5 -5 -7
1 1 1 2 1 1 0 -0 -1 -1 -0 -0 -0 -0 -0 -1 -2 -3 -5 -5 -6 -6 -6 -6 -5 -4 -3 -1 1 1 -2 -5 -6 -6 -4 -3 -1 1 3 3 0 -2 -3 -2 1 3 4 3 2 -1 -3 -3 4 5 2 -3 1 5 9 13 14 14 14 12 4 -0 -3 -3 -4
2 2 3 2 1 1 -0 -2 -2 -2 -2 -2 -1 -1 -1 -2 -3 -4 -5 -6 -5 -4 -4 -4 -5 -6 -4 0 4 4 3 -1 -2 -2 -2 -2 -0 2 3 3 2 1 1 -1 -1 -0 1 3 4 -0 -5 -6 4 7 5 -2 0 3 6 10 14 15 13 10 5 4 4 4 2
2 2 2 1 0 -0 -1 -3 -3 -1 -0 0 0 -0 -2 -4 -4 -5 -5 -4 -2 -3 -4 -4 -4 -6 -6 -3 1 3 4 3 2 1 -0 -0 3 3 2 2 2 3 4 2 -2 -4 -4 0 6 1 -5 -8 5 10 8 -0 1 1 2 8 15 14 10 4 2 3 4 4 2
2 1 1 0 0 1 1 -0 -0 1 2 3 3 2 -0 -2 -3 -3 -3 -2 -4 -6 -7 -4 -3 -4 -5 -5 -4 -2 0 2 3 2 1 1 5 7 8 6 3 3 5 6 2 -1 -2 -0 5 3 -1 -1 4 5 3 -2 0 -0 0 6 14 14 9 4 2 1 2 4 3
2 2 3 3 3 3 2 1 0 0 1 3 3 2 1 -0 -2 -3 -5 -6 -7 -7 -7 -5 -4 -3 -3 -2 -4 -4 -3 -1 1 2 2 -0 1 5 9 10 6 5 4 4 2 2 2 2 3 2 2 5 4 0 -2 0 1 1 1 4 11 13 10 3 -0 0 4 8 4
2 2 2 2 3 3 3 1 1 2 2 2 1 0 0 1 0 -1 -3 -4 -3 -3 -4 -5 -7 -6 -3 1 -1 -3 -4 -4 -2 0 1 -1 -2 1 5 6 7 5 3 2 2 3 4 4 1 -2 -3 1 4 2 0 1 2 2 1 1 8 11 8 -0 -3 -1 3 6 1
1 1 0 0 1 2 2 2 2 3 2 0 -1 -2 -1 2 2 2 2 3 3 2 0 -2 -6 -6 -4 2 2 -1 -5 -8 -7 -5 -2 1 -0 -1 -0 1 2 -0 -1 1 1 1 2 4 2 -2 -4 -1 4 2 -1 -2 2 1 -0 -1 6 8 6 -0 -2 -2 -1 0 -0
-1 -1 -1 -1 -1 -1 -1 0 1 1 0 -2 -2 -2 -1 1 2 2 2 2 1 1 2 -0 -4 -4 0 6 5 0 -5 -8 -9 -8 -6 -1 0 -0 -1 -1 -1 -2 -2 -1 -0 -0 1 6 6 2 -1 1 5 4 1 -1 1 1 0 2 7 10 9 2 -2 -4 -4 -3 -2
-2 -2 -1 -1 -3 -3 -2 -1 -1 -1 -2 -4 -4 -3 -1 -0 1 1 -0 -2 -2 -0 1 -1 -2 1 5 9 7 2 -4 -7 -7 -7 -6 -5 -3 -1 -0 0 0 0 -0 -1 -0 0 1 4 4 1 -1 0 6 10 10 5 1 -0 1 3 9 12 11 4 -2 -3 -3 -3 -4
1 1 0 -1 -2 -2 -1 -1 -3 -3 -4 -5 -6 -5 -4 -3 -4 -4 -3 -2 -1 -2 -4 -3 1 4 7 10 9 4 -1 -4 -4 -4 -4 -5 -4 -3 -1 -1 -0 0 0 -1 1 3 3 0 -3 -3 -3 -3 5 14 18 13 4 -0 -0 3 8 12 11 5 0 -2 -3 -4 -4
3 2 2 2 1 2 2 1 -1 -2 -3 -4 -4 -4 -3 -4 -5 -4 -2 2 -0 -4 -6 -3 1 3 6 9 10 8 6 2 -1 -2 -2 -3 -3 -2 -2 -2 -1 -1 -1 -1 1 3 2 -2 -4 -4 -2 -3 2 7 12 12 7 2 -0 1 7 10 10 5 1 -2 -3 -3 -1
11 8 7 5 6 6 6 4 1 -0 -1 -2 -2 -2 -1 -1 -0 2 4 3 -0 -2 -2 -0 1 2 3 3 5 6 6 4 1 -0 -0 -1 -2 -1 -1 -2 -1 -0 -0 -1 -1 1 1 -0 -0 0 2 2 -0 -4 -4 2 4 2 -1 0 5 6 5 3 0 -1 -1 1 0
21 20 18 15 14 13 11 8 5 2 0 -1 -2 -2 -1 -1 1 4 6 3 -0 -1 1 2 3 2 0 -0 1 2 2 1 1 1 0 -1 -2 -2 -1 -2 -0 1 2 -1 -2 -0 3 4 5 6 6 7 3 -3 -7 -4 0 0 -1 -2 -0 1 1 1 2 3 4 3 -1
12 14 16 16 16 16 15 14 12 9 6 3 0 -0 -0 -1 -1 2 5 4 2 3 4 5 2 0 -0 2 2 1 0 0 1 3 3 1 -1 -1 0 1 1 1 1 -1 1 4 6 7 8 6 4 2 3 3 3 1 -0 -1 -2 -4 -4 -2 -0 0 3 5 6 1 -1
3 3 3 4 4 6 8 11 14 15 14 11 8 6 4 1 0 2 5 6 6 7 7 5 1 0 0 2 2 2 1 -0 2 4 6 5 3 3 5 6 3 0 -1 -0 5 8 10 8 5 2 -1 -3 -1 4 9 10 4 -0 -3 -5 -4 -1 1 1 3 4 4 1 1
0 1 1 1 1 1 1 1 3 6 9 10 11 12 12 10 9 9 8 7 7 7 6 4 4 3 2 -1 -2 -0 1 -0 1 3 4 3 4 6 7 8 5 1 -1 1 4 5 5 3 -0 -2 -2 -3 -2 2 8 16 10 2 -5 -6 -3 -0 2 1 3 3 3 2 1
-1 -1 -0 0 1 2 3 2 1 1 2 3 5 6 8 10 14 15 15 12 9 5 2 2 5 6 6 3 -0 -1 -0 1 1 1 1 1 4 6 6 4 3 2 1 1 -0 -2 -3 -3 -2 -1 -1 -1 -1 0 6 15 14 6 -2 -6 -3 -0 2 2 2 2 1 0 -1
-3 -3 -3 -2 0 2 4 5 6 6 6 7 6 3 1 0 4 8 12 14 12 8 4 2 4 4 4 4 3 3 3 4 4 3 3 4 7 8 6 3 2 2 2 1 -1 -2 -2 -1 1 1 1 -0 -0 0 4 12 16 11 2 -5 -4 -1 2 2 1 -0 -2 -4 -4
-2 -3 -3 -2 0 2 4 6 7 10 12 15 14 10 5 -1 -2 1 4 7 9 10 11 10 9 8 5 3 4 4 5 7 9 7 5 5 7 7 6 5 4 4 4 3 1 1 2 3 4 3 2 0 -0 -0 2 9 14 11 2 -6 -4 -2 -0 0 0 -1 -2 -4 -3
-1 -2 -2 -2 -2 0 3 6 8 12 16 21 20 18 13 6 2 1 1 1 1 4 8 14 20 21 19 16 13 9 5 4 5 4 3 4 4 4 4 7 8 8 6 5 3 3 3 3 2 1 -0 -1 -2 -2 1 7 9 6 -0 -4 -3 -2 -1 1 1 1 0 -1 -2
2 1 1 -0 -1 0 2 4 8 13 18 22 22 20 16 11 6 4 3 3 2 3 4 7 12 16 19 24 28 26 21 14 6 1 -0 4 5 5 5 8 8 6 4 2 0 -1 -2 -2 -3 -2 -2 -1 -2 -2 -0 3 2 1 -0 -0 -1 -0 1 2 2 2 1 -0 -1
3 4 5 4 3 3 4 6 10 13 16 16 16 15 14 12 10 8 7 7 6 5 5 7 7 7 8 12 20 25 27 25 18 12 7 4 5 6 6 6 4 1 -3 -5 -5 -5 -4 -3 -3 -2 -0 0 -0 -1 -1 -2 -2 0 2 2 2 2 2 2 2 2 2 1 1
2 3 5 5 5 6 7 10 13 14 14 11 11 12 13 13 13 12 11 9 6 5 5 7 8 8 8 9 10 9 8 8 10 11 10 7 3 1 0 -0 -2 -5 -8 -9 -7 -5 -2 -0 -0 0 1 1 -0 -2 -3 -4 -2 1 2 2 3 4 4 3 2 3 4 4 3
0 1 1 2 3 4 5 7 9 10 11 11 11 12 12 13 14 14 12 8 4 4 6 7 7 7 8 8 7 6 5 4 3 2 2 6 11 9 5 -0 -3 -6 -7 -8 -7 -5 -3 -0 -1 -1 -1 0 -0 -0 -1 -1 -0 0 1 2 3 5 6 6 6 6 5 4 4
0 -0 -0 1 -0 -1 -1 0 1 3 4 4 5 7 9 13 15 15 13 8 6 7 7 6 4 4 5 6 5 4 4 6 6 4 2 1 10 22 30 25 16 11 9 8 1 -5 -7 -6 -5 -4 -4 -3 1 4 6 5 4 4 5 5 6 7 8 8 8 7 6 6 5
-1 -1 0 1 -1 -2 -2 -1 -1 -2 -1 -0 -0 1 4 8 11 12 11 9 11 11 9 4 3 4 7 8 6 4 3 4 5 7 7 4 3 10 26 50 55 58 59 55 39 20 3 -6 -5 -4 -3 -2 -1 1 4 5 6 9 11 12 11 10 9 6 4 4 5 6 5
-1 -0 0 -0 -1 -0 0 -0 -1 -1 0 1 2 2 2 1 1 2 3 7 9 6 2 -1 2 4 6 6 5 5 5 4 5 6 7 7 6 4 4 10 36 51 54 43 43 38 28 14 4 1 2 5 6 7 8 9 11 13 14 15 14 12 10 6 4 2 1 1 0
-0 0 0 -0 0 0 0 -0 0 1 3 4 4 4 2 0 -3 -5 -6 -7 -10 -12 -13 -10 -7 -6 -5 -5 -1 2 4 4 4 6 7 7 6 6 5 4 1 -4 -9 -10 -6 7 22 33 24 17 13 14 15 15 16 16 14 13 12 12 11 10 7 4 1 -1 -3 -4 -3
0 0 0 1 1 1 0 1 2 3 3 3 4 3 2 -0 -3 -6 -9 -13 -16 -16 -14 -12 -12 -12 -11 -9 -6 -5 -3 1 4 5 4 2 2 3 5 7 7 6 4 4 4 4 7 19 32 33 26 18 15 14 13 11 10 8 7 6 4 2 -1 -4 -6 -6 -4 -1 2
-0 0 1 2 2 1 1 2 2 2 2 2 2 1 0 -2 -3 -3 -4 -5 -5 -5 -5 -6 -7 -6 -6 -6 -7 -8 -8 -5 -1 1 1 -1 -1 1 3 6 6 6 7 7 7 8 10 10 20 31 36 28 18 12 8 7 6 4 2 0 -2 -4 -6 -6 -4 -3 -1 2 5
0 1 1 1 2 2 2 2 2 1 1 1 1 -0 -1 -1 0 1 0 -0 -0 -2 -3 -5 -5 -5 -5 -5 -5 -6 -8 -9 -8 -6 -3 -0 1 2 3 3 4 4 4 5 6 8 10 10 9 13 23 36 29 20 12 6 5 4 3 1 -1 -2 -3 -1 -0 -0 -1 -1 -0
0 1 1 1 2 2 3 3 2 2 2 1 0 -0 -0 0 1 1 -0 -1 -1 -2 -2 -3 -4 -4 -5 -4 -4 -5 -5 -6 -7 -8 -7 -4 -0 2 3 2 1 1 1 3 5 7 8 9 8 6 8 16 29 31 24 14 8 5 4 4 4 3 2 1 0 -1 -2 -2 -2
-0 0 1 1 2 2 3 3 3 3 2 1 0 -0 -0 -0 -1 -1 -2 -1 -0 0 1 1 1 1 1 0 -1 -2 -2 -2 -3 -4 -5 -5 -3 -1 1 1 0 0 -0 -0 1 4 7 9 8 8 7 8 16 26 33 30 18 9 4 4 6 6 6 5 2 0 -1 -1 0
-1 -1 -0 0 1 2 2 2 2 2 2 1 0 -0 -0 -0 -0 -0 0 1 1 2 2 2 3 3 3 2 1 -0 -1 -2 -1 -1 -2 -3 -4 -4 -4 -3 -1 -1 -1 -3 -2 0 3 6 7 8 9 10 12 16 22 31 29 20 11 6 7 8 8 8 7 5 4 3 4
-2 -2 -2 -1 -0 -0 0 1 1 1 1 -0 -1 -1 -1 -1 -0 1 1 2 1 1 0 0 0 -0 -1 -2 -2 -2 -2 -1 -1 -0 0 0 -2 -4 -5 -5 -4 -4 -4 -4 -4 -3 -1 2 4 6 7 8 10 10 12 16 26 29 26 18 13 10 10 10 10 9 9 9 8
-1 -1 -1 -2 -2 -2 -1 -1 -1 -1 -1 -1 -1 -1 -1 -1 -0 -0 -0 -0 -1 -1 -1 -1 -2 -3 -3 -3 -3 -2 -1 -0 -0 -0 -0 -0 -1 -2 -3 -4 -4 -4 -5 -4 -4 -3 -3 -3 -1 1 2 4 5 7 8 9 14 24 32 35 26 19 13 11 10 10 10 11 10
1 0 -0 -1 -1 -1 -1 -1 -2 -2 -2 -1 0 1 1 0 -0 -1 -1 -2 -1 -1 -1 -1 -2 -2 -2 -1 -1 -0 -0 -0 -1 -1 -2 -2 -2 -2 -2 -3 -3 -3 -3 -3 -2 -2 -2 -3 -4 -4 -3 -1 1 2 4 6 8 13 20 30 32 29 23 16 13 11 9 8 8
1 1 1 1 0 -0 -0 -1 -1 -2 -2 -1 -0 0 0 -0 -0 -0 -0 0 1 1 1 0 -0 0 0 0 -0 -1 -1 -1 -1 -2 -2 -3 -2 -2 -2 -2 -2 -2 -2 -2 -2 -2 -1 -1 -2 -3 -4 -4 -4 -2 -0 2 4 7 11 15 21 23 23 21 19 15 11 7 6
2 2 2 2 2 1 1 1 1 0 -0 -0 -1 -1 -1 -0 1 1 1 1 1 2 2 1 2 2 2 1 -0 -1 -1 -2 -2 -2 -2 -2 -2 -2 -2 -3 -2 -2 -2 -3 -3 -3 -3 -2 -2 -2 -3 -4 -4 -4 -4 -2 -1 1 4 9 13 15 15 14 14 13 12 10 6
2 2 2 3 3 3 2 2 2 2 2 1 0 -0 -0 1 1 1 1 1 1 1 1 1 2 3 3 2 1 -0 -1 -1 -2 -2 -2 -2 -3 -3 -4 -3 -3 -3 -3 -4 -4 -4 -4 -3 -3 -2 -2 -2 -3 -3 -4 -4 -3 -3 -1 1 7 12 14 12 10 8 8 7 6
Height
1394 1395 1396 1397 1397 1398 1398 1398 1399 1399 1400 1400 1401 1401 1401 1402 1402 1402 1403 1403 1404 1404 1404 1405 1405 1405 1405 1406 1406 1406 1406 1407 1407 1407 1407 1408 1408 1408 1408 1409 1409 1411 1412 1413 1415 1416 1417 1417 1418 1419 1420 1420 1420 1421 1421 1422 1423 1424 1424 1424 1423 1422 1423 1424 1426 1428 1431 1433 1435
1393 1394 1394 1395 1396 1396 1397 1397 1397 1397 1397 1398 1398 1398 1399 1399 1399 1400 1400 1401 1401 1401 1402 1402 1402 1402 1403 1403 1403 1403 1403 1403 1404 1404 1405 1405 1405 1406 1406 1407 1407 1408 1409 1410 1411 1412 1413 1414 1415 1416 1417 1417 1418 1418 1418 1418 1419 1421 1422 1421 1421 1421 1421 1422 1422 1424 1427 1429 1431
1392 1392 1393 1393 1394 1394 1395 1395 1395 1396 1396 1396 1396 1397 1397 1397 1397 1397 1397 1398 1398 1399 1399 1399 1399 1400 1400 1401 1401 1401 1401 1401 1401 1402 1402 1402 1402 1403 1404 1404 1405 1405 1406 1407 1408 1409 1410 1411 1412 1412 1413 1414 1414 1414 1414 1414 1416 1417 1419 1419 1419 1418 1418 1419 1420 1422 1424 1426 1427
1391 1392 1392 1392 1392 1393 1393 1393 1393 1394 1394 1394 1394 1394 1394 1394 1394 1395 1395 1395 1395 1396 1396 1397 1397 1397 1397 1398 1398 1399 1398 1398 1399 1399 1399 1400 1400 1400 1401 1402 1402 1403 1403 1404 1405 1405 1407 1408 1408 1409 1410 1411 1411 1410 1410 1411 1412 1414 1415 1417 1417 1416 1415 1416 1417 1419 1421 1422 1423
1390 1390 1391 1391 1391 1391 1391 1392 1392 1392 1392 1392 1393 1393 1392 1392 1392 1392 1392 1392 1392 1393 1393 1394 1394 1394 1394 1395 1395 1396 1396 1396 1396 1397 1397 1397 1397 1398 1398 1399 1399 1400 1401 1401 1402 1402 1403 1405 1405 1405 1406 1407 1408 1408 1407 1407 1409 1411 1412 1414 1414 1413 1412 1412 1414 1416 1417 1419 1420
1389 1389 1389 1390 1390 1390 1390 1390 1390 1390 1391 1391 1391 1390 1390 1390 1389 1389 1389 1389 1389 1390 1390 1391 1391 1391 1392 1392 1392 1392 1393 1393 1394 1394 1394 1394 1395 1396 1396 1395 1396 1397 1397 1398 1399 1399 1400 1401 1402 1402 1402 1403 1404 1404 1404 1405 1406 1408 1409 1411 1410 1409 1409 1409 1411 1412 1414 1416 1417
1388 1388 1388 1388 1388 1389 1388 1388 1388 1388 1389 1389 1389 1388 1387 1387 1387 1387 1387 1387 1387 1387 1387 1387 1388 1388 1388 1388 1388 1389 1390 1390 1391 1391 1391 1391 1392 1392 1392 1392 1392 1393 1394 1395 1396 1397 1397 1398 1398 1398 1398 1399 1400 1400 1400 1402 1403 1404 1406 1407 1407 1406 1405 1405 1407 1409 1411 1413 1415
1387 1387 1387 1387 1387 1387 1387 1387 1387 1387 1387 1387 1386 1386 1385 1385 1385 1385 1384 1384 1384 1384 1384 1384 1384 1385 1385 1384 1384 1385 1385 1386 1387 1387 1388 1388 1389 1389 1389 1389 1390 1391 1391 1392 1392 1393 1394 1394 1394 1394 1395 1396 1396 1397 1397 1398 1399 1401 1402 1403 1404 1403 1402 1402 1404 1406 1408 1410 1412
1386 1386 1386 1386 1385 1385 1385 1385 1385 1385 1385 1385 1384 1383 1383 1383 1383 1383 1382 1382 1381 1381 1380 1380 1380 1380 1381 1381 1381 1381 1382 1382 1382 1383 1384 1385 1385 1385 1386 1387 1387 1387 1388 1388 1389 1389 1390 1391 1391 1391 1391 1392 1392 1393 1394 1395 1396 1397 1398 1400 1400 1400 1399 1399 1401 1403 1405 1407 1409
1385 1385 1384 1384 1383 1383 1383 1383 1382 1382 1382 1382 1382 1381 1381 1381 1380 1380 1379 1379 1378 1377 1377 1377 1376 1377 1377 1377 1377 1377 1377 1378 1378 1379 1380 1381 1381 1382 1382 1383 1383 1384 1384 1385 1385 1386 1387 1387 1387 1388 1388 1388 1389 1390 1390 1392 1392 1393 1395 1396 1397 1396 1396 1396 1398 1400 1402 1403 1405
1384 1383 1383 1382 1382 1381 1381 1381 1380 1380 1379 1379 1378 1378 1378 1377 1377 1377 1377 1376 1375 1375 1374 1373 1373 1373 1373 1374 1374 1373 1374 1374 1375 1375 1376 1376 1377 1377 1378 1379 1379 1380 1381 1381 1382 1382 1383 1383 1383 1384 1385 1385 1386 1386 1387 1387 1389 1390 1392 1392 1393 1393 1393 1393 1395 1397 1398 1399 1401
1383 1382 1382 1381 1380 1380 1379 1379 1378 1377 1377 1376 1375 1375 1374 1374 1373 1373 1373 1373 1373 1372 1371 1371 1370 1370 1370 1371 1371 1370 1370 1371 1371 1372 1372 1372 1373 1373 1374 1375 1375 1376 1377 1377 1378 1379 1379 1379 1379 1380 1381 1381 1382 1382 1383 1384 1385 1387 1388 1389 1390 1391 1390 1391 1392 1393 1394 1396 1397
1383 1382 1381 1380 1380 1379 1378 1377 1376 1375 1374 1373 1372 1372 1371 1371 1370 1370 1370 1370 1370 1369 1368 1368 1367 1367 1367 1367 1368 1368 1368 1368 1368 1368 1368 1368 1369 1369 1370 1371 1371 1372 1373 1373 1374 1375 1375 1375 1376 1376 1377 1377 1378 1379 1380 1381 1382 1383 1384 1386 1387 1387 1387 1387 1388 1389 1391 1392 1394
1382 1381 1380 1379 1378 1377 1377 1375 1374 1373 1372 1371 1370 1369 1368 1368 1367 1367 1367 1367 1366 1366 1365 1365 1365 1364 1364 1364 1365 1365 1365 1365 1365 1365 1365 1365 1365 1366 1366 1367 1367 1368 1369 1369 1370 1371 1372 1372 1372 1372 1373 1373 1374 1375 1376 1378 1379 1379 1380 1381 1382 1383 1384 1384 1385 1387 1388 1389 1390
1378 1377 1377 1377 1376 1375 1375 1374 1373 1372 1370 1369 1368 1367 1366 1365 1365 1365 1365 1364 1363 1362 1362 1362 1362 1361 1361 1361 1362 1362 1362 1362 1362 1362 1361 1361 1361 1362 1362 1363 1364 1365 1365 1365 1366 1367 1367 1367 1368 1368 1369 1370 1371 1372 1373 1374 1375 1375 1376 1377 1378 1379 1380 1381 1382 1383 1384 1385 1386
1376 1375 1374 1373 1372 1372 1372 1372 1371 1370 1368 1367 1366 1365 1364 1363 1362 1362 1362 1362 1361 1360 1359 1359 1358 1358 1358 1358 1358 1359 1359 1359 1358 1358 1358 1357 1357 1358 1358 1359 1360 1360 1361 1362 1362 1362 1363 1364 1364 1364 1365 1366 1367 1368 1370 1370 1371 1371 1372 1373 1374 1376 1377 1378 1379 1380 1381 1382 1383
1376 1375 1373 1372 1371 1370 1369 1368 1367 1367 1366 1365 1363 1362 1361 1360 1360 1359 1359 1359 1358 1358 1357 1357 1356 1356 1356 1355 1355 1355 1355 1355 1355 1355 1355 1354 1354 1354 1355 1355 1356 1357 1357 1358 1358 1359 1359 1360 1360 1360 1361 1362 1363 1365 1366 1367 1367 1367 1368 1369 1371 1372 1373 1374 1376 1377 1378 1379 1380
1377 1375 1373 1372 1371 1369 1368 1366 1365 1364 1362 1361 1360 1359 1358 1357 1357 1357 1356 1355 1355 1355 1354 1354 1354 1353 1353 1352 1352 1352 1352 1352 1352 1351 1351 1351 1351 1351 1351 1351 1352 1353 1354 1355 1355 1355 1355 1356 1356 1357 1358 1359 1360 1361 1362 1363 1363 1363 1364 1365 1367 1369 1370 1372 1373 1374 1375 1376 1377
1378 1376 1374 1373 1371 1369 1367 1366 1364 1362 1360 1358 1357 1356 1355 1354 1354 1353 1353 1352 1352 1352 1352 1351 1351 1350 1350 1349 1349 1349 1348 1348 1348 1347 1347 1347 1347 1347 1347 1348 1349 1349 1350 1351 1351 1351 1352 1352 1353 1354 1354 1355 1356 1357 1358 1359 1360 1360 1360 1361 1363 1366 1367 1368 1370 1371 1372 1373 1375
1379 1377 1376 1374 1372 1370 1367 1366 1364 1362 1360 1357 1355 1354 1352 1351 1351 1350 1350 1349 1349 1349 1349 1348 1348 1347 1347 1347 1346 1346 1345 1345 1345 1344 1344 1344 1344 1344 1344 1345 1345 1346 1347 1347 1347 1347 1348 1349 1350 1350 1351 1352 1352 1353 1354 1356 1357 1357 1357 1357 1360 1362 1363 1365 1366 1367 1369 1370 1372
1380 1379 1377 1375 1373 1370 1368 1366 1364 1362 1360 1357 1355 1352 1351 1349 1349 1348 1347 1347 1347 1347 1347 1347 1347 1346 1345 1344 1343 1343 1342 1342 1342 1341 1341 1341 1341 1341 1341 1342 1342 1342 1343 1343 1344 1344 1344 1345 1346 1347 1348 1348 1349 1349 1351 1352 1353 1353 1353 1354 1356 1357 1359 1361 1362 1363 1365 1366 1367
1381 1380 1378 1376 1374 1372 1369 1367 1365 1362 1360 1357 1354 1352 1350 1348 1347 1347 1346 1345 1345 1344 1344 1344 1344 1344 1343 1342 1341 1340 1339 1339 1338 1338 1338 1337 1337 1337 1338 1339 1339 1339 1339 1340 1340 1341 1341 1342 1343 1343 1344 1345 1345 1346 1347 1348 1349 1350 1350 1351 1352 1353 1355 1356 1358 1359 1361 1362 1363
1382 1380 1378 1377 1374 1372 1370 1367 1365 1362 1360 1357 1354 1352 1350 1348 1347 1346 1345 1344 1344 1343 1342 1342 1341 1341 1340 1339 1338 1337 1336 1336 1336 1336 1335 1335 1334 1334 1335 1335 1336 1336 1336 1336 1337 1337 1338 1338 1339 1339 1340 1341 1341 1342 1343 1344 1345 1346 1347 1347 1348 1349 1351 1352 1353 1355 1357 1358 1359
1382 1380 1378 1376 1374 1372 1369 1367 1365 1362 1360 1357 1355 1352 1351 1349 1348 1346 1345 1343 1342 1342 1342 1341 1340 1339 1337 1336 1334 1332 1332 1332 1332 1333 1333 1332 1332 1332 1332 1332 1332 1332 1332 1332 1333 1333 1333 1334 1334 1335 1336 1337 1337 1338 1339 1340 1341 1342 1343 1344 1345 1346 1347 1348 1349 1351 1353 1354 1356
1383 1381 1379 1377 1374 1372 1370 1367 1365 1362 1360 1358 1356 1354 1352 1350 1348 1346 1344 1343 1342 1342 1341 1340 1339 1337 1336 1334 1333 1331 1330 1330 1329 1329 1329 1329 1329 1329 1329 1329 1329 1329 1329 1328 1328 1328 1328 1329 1330 1331 1332 1332 1333 1334 1335 1336 1337 1337 1339 1340 1341 1342 1343 1344 1345 1347 1348 1350 1352
1385 1382 1380 1378 1375 1373 1370 1368 1366 1364 1362 1360 1357 1355 1352 1350 1348 1346 1344 1343 1342 1341 1340 1339 1338 1337 1335 1333 1332 1331 1330 1329 1328 1327 1326 1325 1325 1326 1327 1327 1327 1327 1327 1327 1325 1324 1324 1325 1326 1327 1328 1329 1329 1330 1331 1331 1332 1333 1334 1335 1336 1337 1339 1340 1341 1342 1344 1346 1347
1385 1383 1381 1379 1377 1374 1372 1370 1368 1366 1363 1361 1358 1356 1354 1351 1349 1346 1344 1343 1342 1341 1339 1338 1337 1335 1334 1332 1331 1330 1329 1329 1328 1326 1325 1324 1322 1322 1323 1326 1328 1329 1329 1327 1325 1322 1321 1321 1322 1323 1324 1325 1326 1327 1327 1327 1328 1329 1330 1331 1332 1333 1334 1335 1337 1338 1340 1342 1344
1386 1384 1382 1380 1378 1376 1374 1372 1369 1367 1364 1362 1360 1357 1355 1353 1350 1347 1346 1344 1342 1340 1339 1338 1337 1335 1334 1332 1331 1330 1329 1328 1327 1326 1325 1324 1322 1321 1320 1320 1322 1323 1322 1319 1320 1321 1321 1320 1319 1320 1320 1321 1322 1323 1323 1324 1324 1325 1326 1327 1327 1329 1330 1331 1333 1335 1337 1340 1343
1387 1385 1383 1382 1379 1377 1375 1372 1370 1368 1366 1364 1361 1359 1356 1354 1352 1349 1347 1345 1343 1342 1342 1341 1340 1338 1336 1334 1333 1331 1330 1329 1327 1326 1325 1323 1322 1321 1320 1318 1316 1314 1313 1313 1313 1315 1318 1320 1319 1318 1318 1318 1319 1320 1320 1320 1321 1322 1323 1324 1325 1326 1328 1330 1332 1335 1337 1340 1342
1388 1386 1384 1382 1381 1378 1376 1374 1372 1370 1367 1365 1363 1360 1358 1355 1353 1351 1350 1348 1347 1347 1347 1346 1344 1342 1340 1338 1336 1333 1332 1330 1328 1327 1325 1324 1323 1322 1320 1319 1317 1316 1315 1315 1315 1314 1315 1317 1319 1319 1318 1317 1317 1318 1318 1319 1320 1321 1322 1323 1324 1326 1328 1330 1332 1335 1337 1338 1340
1389 1387 1385 1383 1381 1379 1377 1375 1373 1371 1369 1367 1364 1362 1359 1357 1355 1353 1352 1351 1350 1350 1349 1347 1346 1344 1342 1340 1338 1336 1334 1332 1330 1327 1326 1325 1324 1322 1321 1319 1317 1316 1314 1314 1314 1314 1314 1315 1317 1319 1320 1318 1318 1318 1319 1319 1320 1321 1322 1323 1324 1326 1327 1329 1331 1332 1334 1335 1337
1390 1388 1386 1384 1382 1380 1378 1376 1374 1372 1370 1368 1366 1363 1361 1359 1358 1356 1355 1353 1352 1351 1349 1348 1346 1344 1343 1341 1340 1338 1336 1334 1332 1331 1329 1327 1325 1323 1322 1319 1317 1316 1315 1314 1313 1313 1313 1313 1314 1315 1317 1320 1320 1319 1319 1319 1320 1321 1322 1322 1323 1324 1325 1327 1328 1329 1331 1332 1334
1391 1388 1387 1384 1382 1381 1379 1377 1375 1373 1371 1369 1367 1365 1363 1361 1359 1358 1356 1355 1353 1352 1350 1348 1347 1345 1344 1342 1341 1339 1337 1336 1335 1333 1332 1329 1327 1325 1322 1320 1318 1317 1316 1314 1313 1313 1312 1312 1313 1313 1314 1316 1318 1320 1319 1319 1319 1320 1320 1321 1322 1322 1323 1324 1325 1326 1328 1330 1332
1391 1389 1387 1385 1383 1381 1379 1377 1376 1374 1372 1370 1368 1366 1364 1362 1360 1359 1357 1356 1354 1353 1352 1350 1348 1347 1345 1343 1342 1340 1339 1337 1336 1334 1333 1331 1329 1327 1324 1321 1319 1318 1317 1316 1314 1313 1313 1312 1312 1313 1313 1314 1315 1317 1319 1319 1318 1317 1318 1319 1320 1320 1321 1322 1322 1324 1326 1327 1329
1392 1390 1388 1386 1384 1382 1380 1378 1376 1374 1372 1370 1368 1367 1365 1363 1362 1360 1358 1357 1356 1354 1352 1351 1349 1348 1346 1344 1343 1341 1339 1338 1337 1335 1334 1332 1330 1328 1326 1323 1322 1320 1319 1317 1316 1315 1313 1312 1312 1312 1313 1314 1314 1315 1316 1317 1317 1317 1316 1316 1317 1318 1319 1320 1321 1322 1324 1325 1327
1393 1391 1389 1387 1385 1383 1381 1379 1377 1375 1372 1371 1369 1367 1366 1364 1363 1361 1360 1358 1357 1355 1353 1352 1350 1348 1347 1345 1343 1341 1340 1338 1337 1336 1334 1332 1331 1329 1327 1326 1324 1322 1321 1319 1318 1317 1315 1313 1312 1312 1312 1313 1313 1313 1313 1314 1315 1316 1316 1315 1315 1316 1317 1318 1319 1321 1322 1324 1326
1394 1392 1390 1388 1386 1384 1382 1380 1377 1375 1373 1371 1370 1368 1367 1365 1363 1362 1360 1359 1357 1356 1354 1352 1351 1349 1347 1346 1344 1342 1341 1339 1337 1336 1334 1333 1331 1330 1328 1327 1325 1324 1322 1321 1320 1318 1317 1315 1314 1313 1312 1312 1312 1312 1312 1312 1313 1314 1315 1316 1315 1315 1316 1317 1318 1320 1321 1323 1324
1395 1393 1391 1389 1387 1385 1383 1381 1378 1376 1374 1372 1371 1369 1367 1366 1364 1363 1361 1360 1358 1357 1355 1353 1352 1350 1349 1347 1346 1344 1342 1341 1339 1337 1335 1333 1332 1330 1329 1327 1326 1325 1323 1322 1321 1319 1318 1317 1316 1314 1313 1312 1312 1312 1312 1312 1312 1312 1313 1314 1315 1316 1316 1317 1318 1319 1321 1322 1324
1395 1393 1391 1389 1387 1385 1383 1381 1379 1377 1375 1373 1372 1370 1368 1367 1365 1363 1362 1361 1360 1358 1357 1355 1353 1352 1351 1349 1347 1346 1344 1342 1340 1338 1336 1335 1333 1332 1330 1328 1327 1326 1324 1323 1322 1320 1319 1317 1317 1316 1315 1314 1313 1312 1312 1311 1311 1311 1311 1312 1313 1314 1316 1317 1318 1319 1320 1321 1322
1396 1394 1392 1390 1387 1385 1383 1382 1379 1377 1376 1374 1372 1371 1369 1367 1366 1365 1363 1362 1360 1359 1357 1356 1355 1353 1352 1350 1348 1347 1345 1343 1342 1340 1338 1336 1334 1333 1331 1330 1328 1327 1325 1324 1322 1321 1320 1319 1317 1317 1316 1315 1314 1313 1312 1312 1311 1311 1311 1311 1311 1312 1313 1314 1316 1317 1319 1320 1321
1396 1394 1392 1390 1388 1386 1383 1382 1380 1378 1377 1375 1373 1372 1370 1369 1367 1366 1364 1362 1361 1359 1358 1357 1356 1354 1353 1351 1349 1348 1346 1344 1343 1341 1339 1337 1336 1334 1332 1331 1329 1327 1326 1325 1324 1322 1321 1320 1319 1318 1317 1316 1315 1314 1313 1312 1311 1311 1310 1310 1310 1311 1312 1312 1313 1315 1316 1318 1320